User: anonymous   Login
Location: Eaton
(41.3139°N, 82.0207°W)
Time: 10:00:29
(UTC+00:00)
Language:

Cosmos 2056 Rocket - Orbit

View from above orbital plane
View from above orbital plane
View from above satellite
View from above satellite

Ground track
Ground track

The orbit data is extracted from the following two-line orbital elements,

1 20433U 90004B   21265.60367473  .00000058  00000-0  28479-4 0  9994
2 20433  74.0385  14.8551 0039952 124.8310 247.0226 14.36150582658638
Epoch (UTC): 22 September 2021 14:29:17
Eccentricity: 0.0039952
inclination: 74.0385°
perigee height: 742 km
apogee height: 800 km
right ascension of ascending node: 14.8551°
argument of perigee: 124.8310°
revolutions per day: 14.36150582
mean anomaly at epoch: 247.0226°
orbit number at epoch: 65863

The dashed part of the orbit path shows where the satellite is in the earth's shadow,  

DLR